Location: Peterborough
(44.3091°N, 78.3197°W)
Time: 00:37:00
(UTC-04:00)

Vanguard 1 Rocket - Pass Details

Date: 29 March 2023
Orbit: 655 x 4220 km, 34.3° (Epoch: 02 June)

Event Time Altitude Azimuth Distance (km) Brightness Sun altitude
Rises 23:47:03 0° 243° (WSW) 8,461 12.4 -38.2°
Reaches altitude 10° 23:53:17 10° 240° (WSW) 7,356 11.9 -38.8°
Enters shadow 00:12:07 51° 205° (SSW) 3,994 10.2 -40.2°
